Weather History for KHIE - February, 2013

Change the Weather History Date:

Wednesday, February 6, 2013

  Actual Average Record
Temperature  
Mean Temperature 20 °F -  
Max Temperature 30 °F 26 °F 48 °F (2005)
Min Temperature 7 °F 0 °F -27 °F (2015)
Degree Days  
Heating Degree Days 46    
Moisture  
Dew Point 7 °F    
Average Humidity 63    
Maximum Humidity 80    
Minimum Humidity 34    
Precipitation  
Precipitation 0.00 in - - ()
Sea Level Pressure  
Sea Level Pressure 30.00 in    
Wind  
Wind Speed 4 mph (West)    
Max Wind Speed 18 mph    
Max Gust Speed 26 mph    
Visibility 9 miles    
Events Snow    
Averages and records for this station are not official NWS values.
T = Trace of Precipitation, MM = Missing Value Source: NWS Daily Summary

Daily Weather History Graph

Daily Weather History Graph

Search for Another Location

Airport or City:

Trip Planner

Search our weather history database for the weather conditions in past years. The results will help you decide how hot, cold, wet, or windy it might be!

Date:

Astronomy

Feb. 06, 2013 Rise Set
Actual Time 6:58 AM EST 5:03 PM EST
Civil Twilight 6:27 AM EST 5:33 PM EST
Nautical Twilight 5:53 AM EST 6:07 PM EST
Astronomical Twilight 5:19 AM EST 6:41 PM EST
Moon 3:43 AM EST (2/6) 1:13 PM EST (2/6)
Length of Visible Light 11h 05m
Length of Day
10h 04m
Waning Crescent, 17% of the Moon is Illuminated
Feb 6
Waning Crescent
Feb 10
New
Feb 17
First Quarter
Feb 25
Full
Mar 4
Last Quarter

Hourly Weather History & Observations

Time (EST) Temp. Windchill Dew Point Humidity Pressure Visibility Wind Dir Wind Speed Gust Speed Precip Events Conditions
12:52 AM 12.0 °F - 5.0 °F 73% 29.91 in 10.0 mi Calm Calm - N/A   Overcast
1:52 AM 12.9 °F - 3.9 °F 67% 29.90 in 10.0 mi Calm Calm - N/A   Overcast
2:52 AM 12.9 °F - 5.0 °F 71% 29.90 in 10.0 mi Calm Calm - N/A   Overcast
3:07 AM 12.2 °F - 6.8 °F 79% 29.83 in 4.0 mi Calm Calm - 0.00 in Snow Light Snow
3:52 AM 14.0 °F - 8.1 °F 77% 29.90 in 7.0 mi Calm Calm - 0.00 in Snow Light Snow
4:52 AM 14.0 °F - 9.0 °F 80% 29.90 in 10.0 mi Calm Calm - 0.00 in   Overcast
5:19 AM 14.0 °F - 8.6 °F 79% 29.84 in 10.0 mi Calm Calm - N/A   Overcast
5:37 AM 14.0 °F - 8.6 °F 79% 29.85 in 10.0 mi Calm Calm - N/A   Overcast
5:52 AM 14.0 °F - 9.0 °F 80% 29.92 in 10.0 mi Calm Calm - N/A   Overcast
6:52 AM 14.0 °F - 9.0 °F 80% 29.93 in 10.0 mi Calm Calm - 0.00 in   Overcast
8:52 AM 17.1 °F - 10.9 °F 77% 29.94 in 10.0 mi Calm Calm - N/A   Overcast
9:52 AM 19.9 °F - 12.9 °F 74% 29.93 in 10.0 mi Calm Calm - N/A   Overcast
10:52 AM 26.1 °F 21.9 °F 16.0 °F 66% 29.93 in 10.0 mi West 3.5 mph - N/A   Overcast
11:52 AM 28.9 °F 20.4 °F 17.1 °F 61% 29.92 in 9.0 mi WSW 9.2 mph - 0.00 in   Overcast
12:52 PM 30.0 °F 20.5 °F 17.1 °F 59% 29.93 in 10.0 mi WSW 11.5 mph 20.7 mph N/A   Mostly Cloudy
1:12 PM 26.6 °F 14.7 °F 17.6 °F 69% 29.89 in 9.0 mi WNW 15.0 mph 20.7 mph 0.00 in Snow Light Snow
1:40 PM 26.6 °F 14.3 °F 17.6 °F 69% 29.90 in 8.0 mi WNW 16.1 mph 20.7 mph 0.00 in Snow Light Snow
1:52 PM 26.1 °F 14.0 °F 17.1 °F 69% 29.97 in 4.0 mi WNW 15.0 mph 21.9 mph 0.00 in Snow Light Snow
2:06 PM 24.8 °F 11.1 °F 15.8 °F 69% 29.93 in 1.8 mi NW 18.4 mph 26.5 mph 0.00 in Snow Light Snow
2:16 PM 24.8 °F 13.4 °F 15.8 °F 69% 29.93 in 3.0 mi WNW 12.7 mph 23.0 mph 0.00 in Snow Light Snow
2:40 PM 26.6 °F 16.2 °F 14.0 °F 59% 29.93 in 10.0 mi NNW 11.5 mph - 0.00 in   Mostly Cloudy
2:52 PM 26.1 °F 15.0 °F 14.0 °F 60% 30.00 in 10.0 mi NNW 12.7 mph 20.7 mph 0.00 in   Scattered Clouds
3:52 PM 23.0 °F 12.4 °F 9.0 °F 55% 30.06 in 10.0 mi WNW 10.4 mph 20.7 mph N/A   Mostly Cloudy
4:52 PM 21.0 °F 10.6 °F 7.0 °F 55% 30.09 in 10.0 mi WNW 9.2 mph - N/A   Mostly Cloudy
5:52 PM 18.0 °F 4.8 °F 3.0 °F 52% 30.15 in 10.0 mi WNW 12.7 mph 23.0 mph N/A   Clear
6:52 PM 16.0 °F 1.1 °F -8.0 °F 34% 30.21 in 10.0 mi West 15.0 mph - N/A   Clear
7:52 PM 14.0 °F 2.9 °F -9.0 °F 35% 30.24 in 10.0 mi West 8.1 mph - N/A   Clear
8:52 PM 10.9 °F -1.8 °F -9.0 °F 40% 30.27 in 10.0 mi West 9.2 mph - N/A   Clear
9:52 PM 10.0 °F -2.9 °F -11.0 °F 38% 30.31 in 10.0 mi WSW 9.2 mph - N/A   Overcast
10:52 PM 9.0 °F 2.4 °F -11.0 °F 40% 30.32 in 10.0 mi SW 3.5 mph - N/A   Partly Cloudy
11:52 PM 7.0 °F -3.3 °F -9.9 °F 46% 30.33 in 10.0 mi WSW 5.8 mph - N/A   Clear